User: anonymous   Login
Location: Caixon
(43.4106°N, 0.0273°E)
Time: 17:33:03
(UTC+00:00)
Language:

Okean 2 Rocket - Orbit

View from above orbital plane
View from above orbital plane
View from above satellite
View from above satellite

Ground track
Ground track

The orbit data is extracted from the following two-line orbital elements,

1 20511U 90018B   22023.93741991  .00000146  00000-0  16101-4 0  9993
2 20511  82.5230 187.8204 0017445   2.7015 110.3941 14.80120389699714
Epoch (UTC): 23 January 2022 22:29:53
Eccentricity: 0.0017445
inclination: 82.5230°
perigee height: 617 km
apogee height: 641 km
right ascension of ascending node: 187.8204°
argument of perigee: 2.7015°
revolutions per day: 14.80120389
mean anomaly at epoch: 110.3941°
orbit number at epoch: 69971

The dashed part of the orbit path shows where the satellite is in the earth's shadow,  

DLR